This is the latest recevied weather packets stored in our database for station/object KB1QVF. If no packets are shown the sender has not sent any weather packets the latest 10 day(s).
| Time | Temp. | Humidity | Pressure | Rain* | Wind** | Luminosity | Snow |
|---|---|---|---|---|---|---|---|
| 1777926357 | 18.89° C | 36% | 1010.8 hPa | 0 mm | - | 462 W/m² | - |
| 1777926054 | 18.89° C | 35% | 1010.5 hPa | 0 mm | - | 156 W/m² | - |
| 1777925751 | 19.44° C | 35% | 1010.6 hPa | 0 mm | - | 513 W/m² | - |
| 1777925449 | 18.89° C | 35% | 1010.5 hPa | 0 mm | - | 152 W/m² | - |
| 1777925145 | 19.44° C | 36% | 1010.6 hPa | 0 mm | - | 157 W/m² | - |
| 1777924842 | 18.89° C | 32% | 1010.6 hPa | 0 mm | - | 530 W/m² | - |
| 1777924538 | 19.44° C | 33% | 1010.8 hPa | 0 mm | - | 553 W/m² | - |
| 1777924235 | 19.44° C | 34% | 1010.8 hPa | 0 mm | - | 293 W/m² | - |
| 1777923931 | 19.44° C | 32% | 1010.5 hPa | 0 mm | - | 589 W/m² | - |
| 1777923627 | 19.44° C | 32% | 1010.8 hPa | 0 mm | - | 607 W/m² | - |
| 1777923324 | 19.44° C | 32% | 1010.8 hPa | 0 mm | - | 613 W/m² | - |
| 1777923022 | 19.44° C | 32% | 1010.7 hPa | 0 mm | - | 512 W/m² | - |
| 1777922720 | 19.44° C | 33% | 1011 hPa | 0 mm | - | 405 W/m² | - |
| 1777922418 | 19.44° C | 32% | 1010.5 hPa | 0 mm | - | 654 W/m² | - |
| 1777922116 | 18.89° C | 33% | 1010.8 hPa | 0 mm | - | 652 W/m² | - |
| 1777921812 | 19.44° C | 33% | 1010.8 hPa | 0 mm | - | 658 W/m² | - |
| 1777921508 | 19.44° C | 32% | 1010.7 hPa | 0 mm | - | 659 W/m² | - |
| 1777921204 | 19.44° C | 31% | 1010.8 hPa | 0 mm | - | 668 W/m² | - |
| 1777920901 | 19.44° C | 31% | 1011 hPa | 0 mm | - | 671 W/m² | - |
| 1777920597 | 18.89° C | 32% | 1010.8 hPa | 0 mm | - | 686 W/m² | - |
| 1777920293 | 19.44° C | 30% | 1010.9 hPa | 0 mm | - | 694 W/m² | - |
| 1777919989 | 19.44° C | 32% | 1011.1 hPa | 0 mm | - | 707 W/m² | - |
| 1777919686 | 19.44° C | 30% | 1011.1 hPa | 0 mm | - | 712 W/m² | - |
| 1777919384 | 19.44° C | 32% | 1011 hPa | 0 mm | - | 718 W/m² | - |
| 1777919080 | 18.89° C | 31% | 1011.1 hPa | 0 mm | - | 727 W/m² | - |
* Rain latest hour (hover to see other rain measurements)
** Current wind speed in m/s (hover to see current wind gust speed)